Overview Statistics Trail Chart Weather Telemetry Raw packets
 

This is the latest recevied weather packets stored in our database for station/object AD0YN. If no packets are shown the sender has not sent any weather packets the latest 10 day(s).

<< 2 3 4 5 6 7 8 >>
Time Temp. Humidity Pressure Rain* Wind** Luminosity Snow
1788547919 35.56° C 47% 1013.7 hPa 0 mm - 815 W/m² -
1788547617 35° C 47% 1013.7 hPa 0 mm - 815 W/m² -
1788547313 35° C 47% 1013.8 hPa 0 mm - 816 W/m² -
1788547009 35° C 46% 1013.8 hPa 0 mm - 816 W/m² -
1788546709 35° C 46% 1014 hPa 0 mm - 814 W/m² -
1788546404 35° C 46% 1013.9 hPa 0 mm - 815 W/m² -
1788546099 35° C 47% 1013.9 hPa 0 mm - 816 W/m² -
1788545796 34.44° C 47% 1013.8 hPa 0 mm - 814 W/m² -
1788545495 34.44° C 49% 1014 hPa 0 mm - 810 W/m² -
1788545191 34.44° C 50% 1014 hPa 0 mm - 808 W/m² -
1788544886 34.44° C 49% 1014.1 hPa 0 mm - 802 W/m² -
1788544585 34.44° C 49% 1014.2 hPa 0 mm - 804 W/m² -
1788544284 34.44° C 47% 1014.1 hPa 0 mm - 801 W/m² -
1788543978 34.44° C 49% 1014.3 hPa 0 mm - 796 W/m² -
1788543675 34.44° C 50% 1014.1 hPa 0 mm - 793 W/m² -
1788543375 34.44° C 49% 1014.3 hPa 0 mm - 787 W/m² -
1788543071 34.44° C 49% 1014.4 hPa 0 mm - 786 W/m² -
1788542767 33.89° C 49% 1014.3 hPa 0 mm - 778 W/m² -
1788542466 34.44° C 49% 1014.6 hPa 0 mm - 776 W/m² -
1788542161 33.89° C 52% 1014.5 hPa 0 mm - 764 W/m² -
1788541856 33.89° C 51% 1014.5 hPa 0 mm - 756 W/m² -
1788541552 33.33° C 53% 1014.7 hPa 0 mm - 746 W/m² -
1788541248 33.89° C 51% 1014.5 hPa 0 mm - 731 W/m² -
1788540946 33.33° C 53% 1014.7 hPa 0 mm - 726 W/m² -
1788540646 33.89° C 51% 1015 hPa 0 mm - 723 W/m² -

* Rain latest hour (hover to see other rain measurements)
** Current wind speed in m/s (hover to see current wind gust speed)